[[{"header":{"parameterUnit":"m.s-1","parameterCategory":1,"la1":30.2991,"la2":30.254,"lo1":-89.0895,"lo2":-89.0444,"dy":0.0017,"dx":0.0017,"nx":28,"ny":28,"refTime":"2026-02-26T09:00:00:Z","depth":0,"parameterNumber":2,"parameterNumberName":"U-component_of_WINDS"},"data":[0,0,0,0,0,0,0,0,0,0,0,0,0,0,0,0,0,0,0,0,0,0,0,0,0,0,0,0,0,0,0,0,0,0,0,0,0,0,0,0,0,0,0,0,0,0,0,0,0,0,0,0,0,0,0,0,0,0,-0.3191,-0.319,0,-0.3155,-0.3154,-0.3154,-0.3119,-0.3119,-0.3118,-0.3118,-0.3081,-0.3081,-0.308,0,0,0,0,0,0,0,0,0,0,0,0,0,-0.3228,-0.3228,-0.3191,-0.319,-0.319,-0.3155,-0.3154,-0.3154,-0.3119,-0.3119,-0.3118,-0.3118,-0.3082,-0.3081,-0.308,0,0,0,0,0,0,0,0,0,0,0,0,0,-0.3204,-0.3227,-0.3191,-0.3168,-0.3166,-0.3155,-0.3154,-0.3154,-0.3119,-0.3119,-0.3118,-0.3117,-0.3082,-0.3081,-0.308,-0.3088,0,0,-0.3078,-0.3077,0,0,0,0,0,0,0,0,-0.3205,-0.3203,-0.3172,-0.317,-0.3167,-0.3141,-0.3154,-0.3132,-0.312,-0.3137,-0.3118,-0.3117,-0.3102,-0.3099,-0.3094,-0.3087,-0.3085,-0.3077,-0.3077,-0.3077,-0.3076,0,0,0,0,0,0,0,-0.3207,-0.3204,-0.3176,-0.3172,-0.3169,-0.316,-0.3155,-0.315,-0.3124,-0.3136,-0.3133,-0.3129,-0.31,-0.3095,-0.3093,-0.3085,-0.3078,-0.3077,-0.3076,-0.3076,-0.3079,-0.308,0,0,0,0,0,0,-0.3212,-0.3206,-0.3178,-0.3175,-0.3185,-0.316,-0.3155,-0.315,-0.3124,-0.3119,-0.313,-0.3128,-0.3097,-0.3094,-0.3091,-0.3097,-0.3077,-0.3076,-0.3075,-0.3079,-0.3079,-0.308,0,0,0,0,0,0,-0.3213,-0.321,-0.3179,-0.319,-0.3185,-0.316,-0.3154,-0.315,-0.3144,-0.3119,-0.3114,-0.3129,-0.3096,-0.3093,-0.3089,-0.3095,-0.3075,-0.3075,-0.3078,-0.3079,-0.308,-0.311,0,0,0,0,0,0,-0.3214,-0.3211,-0.3214,-0.319,-0.3185,-0.3177,-0.3155,-0.3149,-0.3143,-0.314,-0.3117,-0.3113,-0.3095,-0.309,-0.3088,-0.3094,-0.3074,-0.3077,-0.3078,-0.3079,-0.3108,-0.3112,-0.3115,0,0,0,0,0,-0.3216,-0.3225,-0.3214,-0.3211,-0.3188,-0.3178,-0.3175,-0.3154,-0.3143,-0.3146,-0.313,-0.3114,-0.3095,-0.309,-0.3087,-0.3093,-0.3077,-0.3078,-0.3079,-0.3107,-0.3111,-0.3115,0,0,0,0,0,0,-0.3251,-0.3221,-0.3209,-0.3211,-0.3197,-0.3172,-0.3175,-0.316,-0.3149,-0.3146,-0.3121,-0.3117,-0.3115,-0.3104,-0.3099,-0.3098,-0.3084,-0.3084,-0.3105,-0.3109,-0.3113,-0.3115,-0.3073,0,0,0,0,0,-0.3258,-0.3253,-0.3227,-0.3231,-0.3224,-0.3201,-0.3196,-0.3181,-0.3165,-0.316,-0.3143,-0.3129,-0.3119,-0.3114,-0.3104,-0.3107,-0.31,-0.3109,-0.3112,-0.3115,-0.3116,-0.3114,-0.3117,-0.3084,-0.3084,-0.3084,0,0,-0.3274,-0.3257,-0.3255,-0.3237,-0.3225,-0.3218,-0.3196,-0.3191,-0.3186,-0.3159,-0.3153,-0.3141,-0.3123,-0.3122,-0.312,-0.3112,-0.3123,-0.3117,-0.3119,-0.3118,-0.3115,-0.3119,-0.3121,-0.3085,-0.3085,-0.3085,0,0,-0.3299,-0.3287,-0.3287,-0.3275,-0.3256,-0.324,-0.3241,-0.3217,-0.3208,-0.3202,-0.3181,-0.3174,-0.316,-0.3147,-0.3139,-0.3157,-0.3141,-0.3155,-0.3172,-0.317,-0.3173,-0.3175,-0.3179,-0.3182,-0.3156,-0.3156,-0.3156,0,-0.3322,-0.3312,-0.329,-0.3285,-0.3277,-0.3251,-0.3251,-0.324,-0.3219,-0.3214,-0.3205,-0.3184,-0.3171,-0.3165,-0.3169,-0.3164,-0.3162,-0.3157,-0.3174,-0.3176,-0.3178,-0.3182,-0.3184,-0.3158,-0.3158,-0.3157,-0.3157,0,-0.3338,-0.3332,-0.3334,-0.3314,-0.3306,-0.3304,-0.328,-0.3275,-0.326,-0.3245,-0.3238,-0.3221,-0.3206,-0.3204,-0.3191,-0.3196,-0.3191,-0.3179,-0.3163,-0.3183,-0.3186,-0.3188,-0.316,-0.3159,-0.3159,-0.3159,0,0,-0.3385,-0.3351,-0.3352,-0.3341,-0.3318,-0.3312,-0.3308,-0.3293,-0.3288,-0.3274,-0.3269,-0.3256,-0.3244,-0.3235,-0.3219,-0.3218,-0.3231,-0.3205,-0.3205,-0.3209,-0.3233,-0.3242,-0.3244,-0.3221,-0.3221,-0.3221,-0.3234,0,-0.3404,-0.3395,-0.3374,-0.3371,-0.3364,-0.3339,-0.3335,-0.332,-0.3305,-0.3296,-0.328,-0.327,-0.3256,-0.325,-0.3248,-0.323,-0.3235,-0.3229,-0.3215,-0.3214,-0.3218,-0.3246,-0.3255,-0.3268,-0.3236,-0.3236,-0.3236,0,-0.3426,-0.3413,-0.3409,-0.3384,-0.338,-0.3377,-0.336,-0.3353,-0.3335,-0.3324,-0.3313,-0.3295,-0.3288,-0.3275,-0.3264,-0.326,-0.3253,-0.3243,-0.3243,-0.324,-0.3226,-0.3242,-0.3272,-0.3274,-0.3238,-0.3238,-0.3238,0,-0.3457,-0.3439,-0.3433,-0.3425,-0.3397,-0.3395,-0.3383,-0.3364,-0.3356,-0.3342,-0.3336,-0.3321,-0.3313,-0.3302,-0.328,-0.3273,-0.3271,-0.3256,-0.3261,-0.3261,-0.3261,-0.3261,-0.3288,-0.3259,-0.3259,-0.3259,-0.3259,0,-0.3481,-0.3479,-0.3447,-0.3443,-0.344,-0.3416,-0.3413,-0.3398,-0.3382,-0.3374,-0.3352,-0.3346,-0.3319,-0.3309,-0.3292,-0.3285,-0.3282,-0.3272,-0.3267,-0.3273,-0.3274,-0.3267,-0.3265,-0.3259,-0.3259,-0.3259,-0.3259,0,-0.3515,-0.3493,-0.3485,-0.3459,-0.3452,-0.345,-0.3427,-0.3422,-0.3406,-0.3397,-0.3393,-0.3368,-0.3355,-0.3332,-0.3314,-0.3302,-0.3297,-0.329,-0.3303,-0.33,-0.3305,-0.3304,-0.3328,-0.3329,-0.33,-0.3301,-0.3301,0,-0.353,-0.3528,-0.35,-0.3494,-0.3482,-0.3472,-0.3463,-0.3439,-0.3431,-0.3409,-0.3406,-0.3392,-0.3378,-0.3358,-0.3338,-0.3323,-0.3314,-0.3323,-0.3312,-0.3317,-0.3312,-0.3312,-0.3311,-0.3326,-0.3326,-0.3327,-0.3327,0,-0.3559,-0.3548,-0.3536,-0.352,-0.351,-0.3496,-0.3481,-0.3477,-0.3449,-0.3441,-0.3427,-0.3417,-0.3396,-0.3381,-0.3363,-0.335,-0.3333,-0.3331,-0.3331,-0.3336,-0.3343,-0.3337,-0.3309,-0.333,-0.333,-0.333,-0.333,-0.3329,-0.3582,-0.3578,-0.3558,-0.3545,-0.3531,-0.3517,-0.3511,-0.3493,-0.3481,-0.3463,-0.3449,-0.3436,-0.3416,-0.339,-0.3378,-0.3366,-0.3359,-0.3359,-0.3359,-0.3359,-0.336,-0.3346,-0.3363,-0.3363,-0.3363,-0.3363,-0.3363,0,-0.3608,-0.3594,-0.3582,-0.3561,-0.3551,-0.3536,-0.3519,-0.3511,-0.3499,-0.3482,-0.3469,-0.3452,-0.3437,-0.3415,-0.3398,-0.3393,-0.3385,-0.3389,-0.3389,-0.3386,-0.3369,-0.337,-0.3396,-0.3396,-0.3396,-0.3396,-0.3396,-0.3396,-0.362,-0.3612,-0.3599,-0.3583,-0.3568,-0.3555,-0.3546,-0.3532,-0.3518,-0.3501,-0.3488,-0.3474,-0.3454,-0.3435,-0.342,-0.3414,-0.3408,-0.3415,-0.3406,-0.339,-0.3387,-0.3384,-0.3385,-0.3414,-0.3414,-0.3423,-0.3424,-0.3424]},{"header":{"parameterUnit":"m.s-1","parameterCategory":1,"la1":30.2991,"la2":30.254,"lo1":-89.0895,"lo2":-89.0444,"dy":0.0017,"dx":0.0017,"nx":28,"ny":28,"refTime":"2026-02-26T09:00:00:Z","depth":0,"parameterNumber":3,"parameterNumberName":"V-component_of_WINDS"},"data":[0,0,0,0,0,0,0,0,0,0,0,0,0,0,0,0,0,0,0,0,0,0,0,0,0,0,0,0,0,0,0,0,0,0,0,0,0,0,0,0,0,0,0,0,0,0,0,0,0,0,0,0,0,0,0,0,0,0,4.9127,4.9127,0,4.9126,4.9126,4.9126,4.9134,4.9135,4.9135,4.9135,4.913,4.913,4.913,0,0,0,0,0,0,0,0,0,0,0,0,0,4.9134,4.9134,4.9127,4.9127,4.9127,4.9126,4.9126,4.9126,4.9134,4.9135,4.9135,4.9135,4.9131,4.913,4.913,0,0,0,0,0,0,0,0,0,0,0,0,0,4.9132,4.9134,4.9127,4.9131,4.9132,4.9126,4.9126,4.9126,4.9134,4.9135,4.9135,4.9135,4.9131,4.913,4.913,4.9119,0,0,4.9128,4.9128,0,0,0,0,0,0,0,0,4.9132,4.9131,4.9131,4.9131,4.9131,4.9131,4.9127,4.9124,4.9134,4.9133,4.9135,4.9136,4.913,4.913,4.9129,4.9119,4.9119,4.9128,4.9128,4.9128,4.9127,0,0,0,0,0,0,0,4.9132,4.9132,4.9127,4.9131,4.9131,4.9132,4.9133,4.9126,4.9129,4.9133,4.9134,4.9134,4.913,4.9129,4.9128,4.9119,4.9128,4.9128,4.9127,4.9127,4.9102,4.9102,0,0,0,0,0,0,4.9132,4.9132,4.9127,4.9127,4.9133,4.9132,4.9132,4.9131,4.913,4.913,4.9134,4.9134,4.913,4.9129,4.9128,4.9117,4.9128,4.9127,4.9127,4.9102,4.9102,4.9102,0,0,0,0,0,0,4.9132,4.9132,4.9127,4.9129,4.9129,4.9132,4.913,4.913,4.9129,4.913,4.913,4.9132,4.913,4.9129,4.9122,4.9117,4.9127,4.9126,4.9103,4.9102,4.9102,4.9094,0,0,0,0,0,0,4.9132,4.9132,4.9128,4.9129,4.9129,4.9121,4.9129,4.913,4.9129,4.913,4.9128,4.9128,4.913,4.9123,4.9122,4.9116,4.9126,4.9103,4.9103,4.9102,4.9095,4.9093,4.9092,0,0,0,0,0,4.9133,4.9124,4.9128,4.9127,4.9124,4.9121,4.912,4.9124,4.9128,4.9124,4.9125,4.9128,4.9118,4.9122,4.9121,4.9115,4.9104,4.9103,4.9102,4.9095,4.9093,4.9092,0,0,0,0,0,0,4.912,4.9125,4.9128,4.912,4.912,4.9122,4.9117,4.9121,4.9119,4.912,4.9123,4.9122,4.9115,4.9114,4.9119,4.9106,4.9111,4.911,4.9107,4.9105,4.9104,4.9104,4.9125,0,0,0,0,0,4.9117,4.9115,4.9118,4.9111,4.9111,4.9114,4.9113,4.9116,4.9115,4.9115,4.9115,4.9113,4.911,4.9107,4.9104,4.9095,4.9095,4.909,4.9089,4.9088,4.9087,4.9083,4.9082,4.9099,4.9099,4.9099,0,0,4.911,4.9112,4.911,4.9109,4.9109,4.9106,4.9114,4.911,4.9108,4.9114,4.9108,4.9108,4.9106,4.9099,4.9095,4.9098,4.9082,4.9087,4.9086,4.9086,4.9082,4.9081,4.9079,4.9099,4.9099,4.9099,0,0,4.9095,4.9096,4.9091,4.9092,4.9093,4.9096,4.9095,4.9096,4.9097,4.9092,4.9097,4.9093,4.9087,4.9086,4.9085,4.9073,4.9076,4.9071,4.9064,4.9061,4.9059,4.9058,4.9055,4.9053,4.907,4.907,4.907,0,4.9085,4.9082,4.9088,4.9084,4.9084,4.9091,4.9086,4.9086,4.9085,4.9085,4.9088,4.9082,4.9081,4.9074,4.9072,4.907,4.9069,4.9071,4.9059,4.9058,4.9057,4.9054,4.9052,4.907,4.907,4.907,4.907,0,4.9071,4.9068,4.9064,4.9066,4.9065,4.906,4.9065,4.9063,4.9067,4.9069,4.9064,4.9064,4.9061,4.906,4.9062,4.9054,4.9055,4.9059,4.9065,4.9055,4.9052,4.9051,4.9069,4.9069,4.907,4.907,0,0,4.9047,4.9054,4.9052,4.9054,4.9056,4.9054,4.905,4.905,4.9049,4.9048,4.9045,4.9041,4.9045,4.9044,4.9046,4.9043,4.9035,4.9047,4.9047,4.9046,4.9026,4.9024,4.9022,4.9037,4.9037,4.9037,4.9027,0,4.9034,4.9029,4.9035,4.9028,4.9027,4.9035,4.9032,4.9033,4.9035,4.9033,4.9035,4.9033,4.9038,4.9038,4.9035,4.9036,4.9031,4.9037,4.9034,4.9034,4.9035,4.9021,4.9018,4.9008,4.9025,4.9025,4.9025,0,4.9017,4.9018,4.9012,4.9018,4.9017,4.9014,4.9015,4.9014,4.9015,4.9017,4.9017,4.9021,4.9018,4.9023,4.9019,4.9023,4.9022,4.9023,4.9023,4.9023,4.9029,4.902,4.9005,4.9004,4.9023,4.9023,4.9023,0,4.9002,4.9002,4.8999,4.9,4.9005,4.9003,4.9005,4.9007,4.9007,4.9007,4.9007,4.9007,4.9006,4.9006,4.9009,4.9013,4.9005,4.9011,4.9006,4.9006,4.9004,4.9004,4.8988,4.9003,4.9003,4.9003,4.9003,0,4.8986,4.8982,4.8992,4.899,4.8987,4.8993,4.8989,4.8992,4.8994,4.8993,4.8999,4.8997,4.9002,4.9001,4.9003,4.9,4.8999,4.9001,4.9002,4.9,4.9,4.9,4.9001,4.9002,4.9003,4.9003,4.9003,0,4.8968,4.8974,4.8972,4.8978,4.898,4.8977,4.8982,4.898,4.8984,4.8982,4.8982,4.8987,4.8986,4.899,4.8989,4.8991,4.8986,4.8988,4.8986,4.8987,4.8982,4.8983,4.8966,4.8965,4.898,4.8979,4.8979,0,4.8958,4.8956,4.8963,4.8963,4.8965,4.8965,4.8966,4.8973,4.8973,4.8976,4.8974,4.8974,4.8974,4.8972,4.8975,4.8975,4.8977,4.8971,4.8977,4.8977,4.8978,4.8978,4.8978,4.897,4.897,4.897,4.897,0,4.894,4.8944,4.8945,4.8948,4.8949,4.8951,4.8953,4.8953,4.896,4.896,4.896,4.8961,4.8962,4.8961,4.8962,4.8964,4.8968,4.8968,4.8967,4.8966,4.8966,4.8967,4.8983,4.8968,4.8968,4.8969,4.8969,4.8969,4.8926,4.8925,4.893,4.8932,4.8935,4.8937,4.8937,4.8941,4.8942,4.8944,4.8948,4.8948,4.895,4.8952,4.8953,4.8953,4.8956,4.8954,4.8954,4.8953,4.8953,4.8966,4.8953,4.8953,4.8953,4.8953,4.8953,0,4.8909,4.8913,4.8915,4.8919,4.892,4.8926,4.893,4.893,4.893,4.8933,4.8934,4.8935,4.8936,4.894,4.8941,4.894,4.8942,4.894,4.894,4.894,4.895,4.8951,4.8938,4.8938,4.8938,4.8938,4.8938,4.8938,4.89,4.8899,4.8904,4.8905,4.8909,4.891,4.8912,4.8914,4.8917,4.8918,4.8919,4.8922,4.8926,4.8928,4.8928,4.893,4.893,4.8927,4.8929,4.8938,4.8939,4.8941,4.8942,4.8927,4.8927,4.8919,4.8919,4.8919]}]]